Dewpoint
70 68 66 60 51 33 34 35 38 39 44 47 59 58 52 61 54 55 63 66 67 67 70 72 75 75 74 74 74 75 75 75 75 75 74 74 75 75 75 74 74 74 73 73 73 73 73 73 73
64 64 59 56 32 27 31 38 40 43 44 47 51 55 56 57 60 63 64 66 66 66 68 71 75 75 75 74 74 75 75 75 75 75 74 74 74 74 74 74 74 74 73 72 73 72 72 72 72
62 63 56 43 31 29 33 38 39 40 43 45 50 53 55 57 61 64 66 67 67 70 72 74 75 75 75 75 75 75 75 75 75 75 74 74 73 73 73 73 73 73 73 72 72 72 71 71 71
60 57 55 26 27 31 33 35 37 41 44 49 52 52 56 62 63 66 66 68 69 70 71 74 75 75 75 75 75 75 75 75 75 74 74 73 73 73 72 73 73 72 72 72 72 72 71 71 71
61 61 39 30 31 32 32 33 37 38 40 46 53 53 56 64 65 66 67 67 68 69 71 74 76 76 76 76 76 76 75 75 74 74 73 73 73 73 73 73 72 72 72 71 71 71 71 71 71
51 54 34 33 32 35 29 30 36 37 44 49 52 55 57 62 63 66 67 67 68 68 70 72 76 76 75 75 75 76 75 75 74 74 73 73 73 73 72 72 72 72 71 71 71 71 71 71 71
47 45 34 35 39 38 41 33 36 40 44 48 52 55 57 59 60 63 65 67 67 69 70 72 73 74 75 76 75 75 75 74 74 73 73 73 73 73 72 72 72 71 71 71 71 72 71 72 72
49 49 31 35 38 39 43 34 38 41 43 48 53 52 55 57 60 60 64 65 67 68 70 72 72 72 73 74 75 75 75 74 73 73 73 73 73 73 72 71 71 72 72 72 72 72 72 72 72
49 39 29 30 33 37 40 40 41 42 46 48 51 53 57 57 59 61 64 66 66 67 68 69 71 72 72 73 73 74 75 74 73 73 73 73 70 71 66 59 63 72 72 71 71 72 72 72 72
28 26 28 30 32 44 46 42 44 45 47 47 47 54 57 57 57 60 59 62 63 65 67 68 68 71 72 70 73 73 72 72 72 71 72 72 70 70 69 61 63 71 71 71 72 71 72 70 69
25 22 25 33 35 46 42 49 54 57 47 48 50 55 57 57 58 57 60 61 62 64 65 67 71 72 71 71 72 73 72 71 71 71 71 72 70 71 70 70 70 70 71 70 70 70 70 69 68
25 30 29 29 40 38 34 43 49 51 53 53 52 55 56 57 56 56 57 59 62 62 64 69 70 72 71 71 69 70 70 70 68 71 72 71 70 71 71 70 70 70 70 70 70 70 71 69 68
27 30 30 35 36 35 40 44 51 48 53 52 52 54 55 55 56 56 57 58 62 62 63 65 71 71 72 71 71 69 67 66 69 71 71 70 72 71 70 71 71 70 70 70 70 69 69 69 68
29 30 30 32 30 35 39 44 48 51 52 52 53 54 54 55 56 56 57 58 60 62 62 65 70 72 72 72 72 72 68 69 69 70 69 69 71 71 70 70 70 71 70 71 72 71 70 70 69
30 29 30 29 35 36 36 43 48 52 54 53 54 54 54 54 55 56 57 58 60 61 63 65 65 71 73 73 73 72 72 68 67 69 70 71 72 72 71 71 71 70 71 71 72 72 70 69 68
28 29 27 33 38 38 39 43 50 52 53 54 54 54 55 56 57 58 57 58 59 61 65 67 66 69 72 73 73 73 72 71 70 70 70 70 70 70 72 71 70 70 70 70 69 70 69 68 68
26 27 30 35 38 36 38 42 49 50 50 51 53 53 56 56 59 59 61 62 64 65 66 67 68 70 71 72 73 73 72 72 71 71 71 70 71 70 71 71 71 70 69 70 69 68 69 68 67
24 28 31 33 35 38 38 40 45 45 47 49 51 52 54 55 55 60 63 63 64 67 68 69 67 70 70 72 72 72 71 71 71 71 71 71 70 71 72 72 71 70 70 70 70 68 69 69 68
24 24 31 31 40 40 37 38 42 41 44 48 49 51 51 51 56 58 61 64 63 64 68 69 70 71 71 71 71 71 70 72 72 72 71 71 71 71 71 72 71 70 69 69 69 68 67 67 69
17 19 21 27 30 32 40 40 41 40 41 45 48 50 49 51 53 55 57 57 59 65 69 69 72 72 73 73 73 72 71 70 71 71 70 69 69 70 70 69 68 66 67 67 66 66 67 67 68
16 13 16 24 28 28 31 39 42 42 41 42 44 49 49 49 52 56 57 58 60 63 67 68 71 71 72 72 73 72 70 68 66 66 67 67 64 64 66 67 67 67 67 65 65 65 66 66 68
12 14 13 14 22 22 30 26 42 42 39 42 42 45 47 48 51 54 57 59 60 64 66 69 70 72 72 69 65 65 59 54 64 61 65 63 62 64 64 65 66 67 66 66 65 66 67 67 66
12 13 12 13 14 16 20 26 38 39 38 39 41 42 44 47 49 51 54 56 58 63 65 69 72 70 68 65 62 59 60 59 58 58 59 61 63 65 64 64 65 65 66 66 66 66 66 67 66
12 20 15 13 14 14 17 26 34 41 44 40 42 41 44 45 48 49 52 55 57 61 63 69 70 68 66 64 61 59 56 59 59 62 61 61 59 59 65 64 65 65 65 64 65 66 65 65 65
14 20 19 18 18 17 18 21 31 35 38 43 46 50 43 45 48 50 50 54 57 61 63 68 69 68 66 62 60 55 56 58 60 62 61 59 57 58 64 64 64 63 64 64 63 63 63 63 62
15 18 17 18 17 17 21 23 29 27 35 46 47 47 43 43 49 51 53 54 59 61 65 65 68 68 66 63 60 60 60 61 62 64 62 59 59 60 60 61 62 63 63 63 63 63 62 62 61
18 18 17 17 15 14 18 21 22 24 26 24 30 28 42 43 45 50 54 58 61 62 64 66 68 68 66 63 65 64 63 62 61 61 62 61 62 60 62 62 62 63 63 62 62 62 60 60 60
16 19 16 15 13 15 15 16 17 28 26 26 25 27 33 44 46 47 52 58 62 62 64 66 68 68 65 64 65 64 62 62 63 62 61 62 62 63 63 62 62 62 63 62 61 61 61 61 60
15 17 16 15 13 12 15 21 29 30 27 25 26 29 31 34 46 50 52 59 64 62 63 63 65 66 64 62 63 59 57 58 62 61 61 61 63 63 63 63 62 62 62 62 60 61 62 60 60
15 17 21 19 20 22 22 19 24 24 24 24 27 29 34 38 43 53 53 59 63 62 62 60 60 63 62 62 63 61 60 59 59 60 61 61 61 62 62 62 62 62 62 61 60 60 61 60 60
Wind_Speed
9 14 17 14 9 17 21 19 18 18 19 10 34 24 18 5 8 17 19 14 18 18 16 15 14 16 18 18 18 20 19 18 18 18 18 18 16 15 14 13 13 12 12 11 10 9 8 7 6
15 18 13 10 10 24 21 21 20 15 8 22 30 27 29 29 30 25 19 18 17 17 17 15 14 16 16 16 17 18 19 18 16 16 17 17 15 14 13 13 12 11 11 10 9 7 6 4 3
16 22 11 9 19 23 19 16 12 12 11 22 28 25 17 24 22 15 21 19 19 19 17 14 14 16 16 15 15 17 17 17 15 15 15 14 15 14 13 12 11 9 8 8 8 6 4 4 3
14 13 12 23 23 21 18 18 18 21 21 24 23 17 28 31 26 26 24 19 20 16 18 14 14 15 14 15 15 15 16 15 15 14 13 13 13 13 11 10 9 8 7 6 6 5 4 4 4
22 7 5 20 21 18 19 20 18 16 21 23 27 23 28 33 28 28 24 23 19 19 17 15 15 16 16 15 15 15 15 14 14 12 11 11 11 10 9 8 7 5 5 4 4 3 3 4 5
3 10 7 20 19 20 20 16 15 20 26 24 24 25 24 26 24 26 22 20 22 18 19 16 14 14 14 14 14 14 13 13 11 10 9 9 8 7 6 5 4 4 3 3 3 4 4 3 5
9 16 5 28 23 19 8 21 17 21 24 22 22 24 20 22 20 26 22 19 20 18 20 15 15 15 14 14 13 13 12 11 10 9 8 7 6 7 6 5 3 1 1 2 5 5 3 5 6
16 5 7 3 24 15 16 17 24 22 18 24 26 16 22 22 23 22 18 17 24 19 16 17 15 14 14 13 14 12 12 10 9 8 7 7 8 9 6 5 4 4 4 2 4 4 4 7 7
44 11 7 10 14 22 23 20 21 19 17 15 12 25 26 23 22 22 27 19 17 18 12 15 14 13 10 14 12 11 11 10 9 8 8 9 11 10 11 8 4 11 6 6 6 6 8 7 8
7 3 12 11 14 32 30 4 18 14 14 13 21 28 26 22 17 24 16 14 15 16 16 16 13 17 13 11 16 14 13 12 12 12 13 11 6 4 10 2 6 12 7 7 8 9 7 7 8
4 15 7 18 13 31 37 29 18 31 15 18 28 29 26 22 17 14 21 17 13 16 15 15 11 10 10 7 13 13 12 12 13 12 9 7 2 6 2 8 7 6 6 5 6 7 7 5 7
7 14 14 9 24 16 20 25 23 32 20 21 25 27 24 22 19 16 14 16 14 10 10 20 17 14 13 16 9 9 11 9 8 10 9 7 4 5 1 2 4 5 5 4 3 4 6 7 6
10 15 9 14 18 20 23 18 19 24 16 23 24 23 21 19 17 16 14 13 15 12 9 10 16 7 0 6 6 4 8 9 9 11 9 7 5 4 3 3 6 8 8 4 3 4 7 8 10
13 12 11 17 13 12 16 17 18 17 21 22 21 19 18 17 16 15 13 15 13 11 11 11 12 10 5 3 4 4 1 3 4 3 3 1 5 7 4 4 8 5 8 3 7 8 8 11 11
10 11 10 13 19 14 21 17 16 18 18 19 19 18 17 15 15 15 14 13 13 12 14 12 9 12 11 8 5 4 7 7 8 6 6 9 10 10 7 6 8 8 7 6 8 10 11 10 12
15 17 15 20 22 4 9 12 14 16 17 17 17 18 16 15 14 13 14 13 14 12 13 13 10 13 12 11 8 6 8 9 5 7 10 13 11 7 6 7 8 9 6 8 10 10 10 10 9
17 18 17 17 25 12 5 13 18 19 18 16 17 16 16 13 15 17 17 12 11 12 12 11 12 10 11 11 9 10 10 6 9 8 8 5 3 3 6 10 8 8 8 10 10 10 7 8 12
20 21 26 17 17 17 17 12 18 20 19 17 16 15 16 17 16 20 19 17 16 17 14 14 7 5 15 10 6 5 6 7 9 9 5 7 4 7 6 9 10 8 8 11 12 12 10 10 11
18 15 18 18 22 31 16 20 22 22 21 19 20 18 19 18 20 18 22 23 20 17 15 14 12 8 6 7 5 4 6 7 8 9 8 7 5 6 4 5 7 10 11 12 10 9 10 11 10
22 13 14 16 19 13 20 24 22 21 21 22 22 20 20 20 21 18 17 14 15 16 19 14 14 10 8 8 6 6 6 8 12 12 8 3 6 5 5 7 7 11 9 11 8 8 8 9 10
19 13 12 18 14 5 14 22 19 17 18 22 22 22 22 22 24 22 21 19 17 15 16 14 13 13 9 9 8 7 9 7 7 2 5 5 6 9 8 7 8 10 10 11 9 6 10 8 8
23 14 21 18 16 16 20 21 25 32 23 20 23 24 24 25 25 25 23 21 19 18 16 17 13 12 12 6 3 7 3 6 2 2 9 6 6 5 7 9 9 7 8 12 11 7 8 6 9
15 19 21 15 14 18 17 14 24 22 23 23 25 26 25 28 27 27 25 22 21 21 18 17 14 10 11 8 5 4 7 9 7 5 4 5 12 10 9 5 5 8 9 11 11 9 9 10 8
21 12 21 12 15 24 22 16 9 16 24 23 14 23 26 27 27 26 26 25 20 20 18 18 16 12 10 10 8 4 1 3 5 7 5 10 6 8 6 7 6 7 9 9 9 10 10 9 11
21 14 12 14 20 21 19 21 14 25 28 27 29 45 28 26 25 24 27 27 23 23 19 18 17 15 13 10 8 4 3 2 4 7 6 5 9 5 10 5 4 7 10 10 11 10 11 11 8
17 20 15 17 18 20 17 11 24 13 18 37 34 37 30 29 27 26 25 26 26 23 21 20 19 17 15 12 9 6 3 4 4 6 6 5 7 6 4 2 4 8 9 9 7 8 10 9 6
18 25 22 23 16 9 9 12 13 10 10 6 10 14 24 29 28 28 27 26 25 22 21 20 19 17 16 14 11 8 8 6 3 2 1 7 2 6 8 6 8 9 12 9 10 10 11 6 7
20 22 18 21 13 14 11 11 16 20 12 13 11 7 8 23 28 26 28 28 27 23 20 22 19 17 17 15 14 12 11 9 6 4 4 5 6 6 7 8 9 10 13 11 12 8 12 10 8
22 16 12 16 16 14 14 6 18 15 10 8 8 9 5 11 21 26 22 26 27 25 23 21 20 18 16 14 13 8 6 7 9 7 7 6 6 6 7 9 10 11 14 13 11 10 12 14 6
27 20 12 16 12 11 14 8 17 14 12 11 8 3 7 3 15 24 22 24 26 25 24 23 21 19 16 14 12 11 8 6 5 6 6 5 6 7 8 10 12 13 14 12 12 11 12 11 10
Wind_Direction
252 225 220 252 225 82 73 45 69 74 64 91 153 88 117 230 204 114 139 117 127 109 123 111 109 108 106 106 106 106 106 100 100 101 97 94 96 97 96 94 92 87 83 84 81 79 75 80 83
294 294 251 267 104 80 63 60 62 72 94 77 85 105 83 78 91 114 115 123 116 125 111 113 115 111 101 105 106 104 106 107 105 103 95 94 97 96 95 92 85 86 86 88 84 84 90 88 70
273 269 256 165 85 88 89 89 88 108 71 81 75 81 91 107 110 106 125 115 102 92 102 117 116 115 112 106 106 106 107 107 109 101 101 99 96 94 94 92 91 90 89 90 91 81 68 54 24
346 330 245 89 87 93 103 100 87 79 80 97 104 72 85 98 103 122 122 114 106 114 110 120 124 126 126 121 117 112 111 111 112 112 112 111 110 108 106 106 106 99 89 80 84 84 61 33 4
112 268 113 106 103 103 91 105 99 96 95 96 100 100 91 101 119 123 135 129 126 118 121 123 127 130 135 135 132 125 117 116 119 119 122 120 116 119 117 115 112 101 85 70 60 49 25 5 344
97 248 138 105 108 69 103 86 97 99 102 107 108 109 106 117 125 130 136 135 129 136 117 125 126 127 130 132 132 128 126 121 121 122 125 127 128 125 139 133 122 115 97 32 7 359 352 336 319
325 292 28 89 91 85 309 114 100 104 119 122 120 116 128 135 138 135 140 108 116 128 121 137 130 131 134 139 139 141 139 138 135 133 135 138 156 173 168 161 165 170 37 345 331 337 304 302 295
255 226 113 231 142 140 197 119 134 134 129 133 135 140 148 137 148 125 116 139 129 126 130 136 139 144 149 146 148 150 150 153 157 156 159 174 200 203 179 9 277 220 251 277 296 298 289 277 279
205 273 90 53 99 130 124 119 89 101 128 149 124 142 142 147 143 131 128 129 127 129 137 126 142 143 149 140 152 157 161 166 170 176 184 203 233 169 131 225 218 275 242 242 252 267 267 277 277
193 90 129 145 155 84 358 108 116 137 131 128 119 127 140 152 161 142 161 120 158 145 153 157 165 150 177 164 156 167 171 184 191 196 180 217 234 78 159 206 269 263 236 260 252 254 257 267 269
333 89 85 104 87 132 172 75 91 5 139 129 135 141 150 152 158 162 146 155 162 152 176 155 125 177 164 146 189 173 182 194 197 206 203 206 94 165 269 136 206 259 229 240 180 248 257 248 257
105 67 75 87 61 15 75 81 106 146 230 131 142 143 150 156 160 163 157 149 145 163 154 140 158 203 152 176 175 193 188 160 191 194 192 214 217 78 50 337 307 268 109 105 59 318 354 324 298
117 91 89 106 150 86 71 68 118 176 177 132 139 147 153 158 163 161 161 158 148 168 181 141 114 114 258 234 0 101 157 212 175 179 187 226 183 178 256 316 320 320 343 331 207 255 293 282 270
104 137 165 111 91 117 116 106 112 111 126 131 144 149 157 162 166 161 168 160 167 180 174 152 136 153 157 266 316 353 170 68 310 144 157 174 189 171 232 266 272 279 295 314 334 336 313 299 295
131 136 131 146 116 61 111 96 114 129 137 147 148 156 159 157 166 163 176 169 176 177 177 166 175 169 167 196 229 240 290 242 210 227 247 228 204 202 201 219 256 279 289 288 265 259 256 268 283
170 170 177 139 112 80 68 117 134 149 152 149 163 158 154 150 163 165 173 175 174 186 141 152 192 183 185 184 190 217 241 258 251 221 239 239 232 212 193 217 241 255 274 293 293 300 289 272 281
207 197 158 127 126 154 155 163 159 165 167 169 170 154 152 156 156 148 138 151 160 150 163 173 190 183 179 195 193 213 228 242 268 250 263 246 180 230 227 260 256 244 250 256 264 272 269 282 288
202 214 165 164 181 159 169 163 169 175 165 171 176 166 165 167 169 153 160 169 192 168 183 172 175 196 172 149 211 215 241 257 274 283 317 321 320 283 282 271 273 277 270 266 269 273 284 265 266
212 220 161 245 158 162 176 172 177 185 164 176 173 178 177 176 159 159 163 171 178 168 147 143 154 148 146 157 185 225 239 234 248 252 250 253 259 269 262 273 263 269 251 258 274 282 295 299 293
236 207 205 203 156 180 154 183 190 189 175 175 179 183 186 172 156 162 153 173 160 156 154 160 156 158 173 191 198 223 231 227 221 228 215 219 290 194 227 263 312 309 329 323 289 275 299 298 296
249 235 222 200 154 182 199 156 159 255 195 176 183 184 186 176 168 170 170 178 169 157 153 158 159 171 180 198 195 204 236 242 266 13 147 99 13 333 327 326 308 301 299 287 316 320 296 291 301
231 218 258 229 179 214 183 232 172 217 189 196 192 185 189 182 174 174 180 181 172 161 163 157 166 170 169 133 14 96 353 289 51 293 80 16 341 357 306 283 282 328 333 305 313 317 304 283 285
238 226 230 238 240 235 234 231 164 186 190 199 202 193 195 183 182 180 185 181 172 163 168 156 164 142 125 125 61 32 22 7 6 48 16 324 270 256 249 266 1 336 319 316 317 313 293 291 281
222 252 207 224 252 252 231 217 172 186 212 213 240 214 197 189 186 183 181 173 172 163 169 161 141 141 145 146 152 156 167 36 340 6 330 279 355 285 95 38 12 317 299 305 318 305 296 288 296
213 206 209 228 233 242 239 226 236 180 217 209 179 224 198 193 188 185 179 173 173 166 172 150 153 163 162 173 164 146 117 104 242 223 269 10 297 21 73 26 329 324 309 305 298 309 302 299 314
195 219 212 209 233 232 211 188 225 194 177 201 206 204 195 191 188 184 183 173 169 169 168 162 164 170 174 180 157 114 118 257 229 57 41 335 328 338 338 318 295 303 296 287 308 303 307 304 339
188 233 239 256 266 260 187 203 225 167 164 163 182 215 195 188 192 185 177 169 169 175 172 159 165 179 179 175 157 171 180 194 283 34 355 273 4 334 37 331 302 294 288 290 281 286 313 4 353
218 207 233 248 259 278 238 237 220 161 162 175 184 214 230 197 187 190 183 171 169 178 173 158 169 186 184 172 168 199 180 178 192 192 237 266 267 271 281 289 293 312 311 304 307 300 302 318 326
209 229 218 244 230 251 255 82 103 139 157 150 169 179 197 232 202 185 185 173 170 176 174 167 171 187 187 182 174 164 169 189 183 200 228 250 278 281 279 281 283 289 293 293 293 286 266 275 301
226 199 214 243 256 275 299 309 136 143 154 172 129 177 156 209 275 175 183 173 170 177 175 175 175 184 194 179 172 166 176 192 206 207 234 257 273 275 280 276 275 283 288 288 300 293 304 305 296